Regional Weather Roundup
Issued by NWS

Home | Current Version | Previous Version | Graphics & Text | Print | Product List | Glossary On
Versions: 1 2 3 4 5 6 7 8 9 10 11 12 13 14 15 16 17 18 19 20 21 22 23 24 25 26 27 28 29 30 31 32 33 34 35 36 37 38 39 40 41 42 43 44 45 46 47 48 49 50
000
ASUS43 KTOP 251859
RWRKS

WEATHER ROUNDUP FOR KANSAS
NATIONAL WEATHER SERVICE GOODLAND KS
200 PM CDT SAT MAR 25 2017

NOTE:  "FAIR" INDICATES FEW OR NO CLOUDS BELOW 12,000 FEET WITH NO
SIGNIFICANT WEATHER AND/OR OBSTRUCTIONS TO VISIBILITY.

KSZ001>006-013>018-027>032-041>047-252000-
NORTHWEST KANSAS

CITY           SKY/WX    TMP DP  RH WIND       PRES   REMARKS
GOODLAND       SUNNY     55  28  35 N6        29.99F
HAYS             N/A     45  39  79 N14       29.99F
HILL CITY      CLOUDY    49  41  74 N12       29.99F
RUSSELL        CLOUDY    42  39  89 N13       29.99S FOG
$$

KSZ061>065-074>080-084>089-252000-
SOUTHWEST KANSAS

CITY           SKY/WX    TMP DP  RH WIND       PRES   REMARKS
DODGE CITY     SUNNY     59  37  44 N15G24    29.95F
ELKHART          N/A     60  27  28 W7          N/A
GARDEN CITY    SUNNY     62  30  29 N14G22    29.97F
GREAT BEND     CLOUDY    45  39  79 N17       29.99F
LIBERAL        SUNNY     63  28  27 N12G20    30.00F
$$

KSZ066>073-081>083-090>101-252000-
SOUTHEAST KANSAS

CITY           SKY/WX    TMP DP  RH WIND       PRES   REMARKS
CHANUTE        LGT RAIN  48  44  86 W13       29.88R
COFFEYVILLE    CLOUDY    49  44  83 W14       29.91S
HUTCHINSON     CLOUDY    43  39  86 NW20      29.96F
MEDICINE LODGE   N/A     48  39  71 N12       29.97F
NEWTON         CLOUDY    43  40  89 NW14G21   29.95R
PARSONS        CLOUDY    49  43  80 W14       29.90S
WICHITA INTL   CLOUDY    45  40  82 NW16      29.95F
WICHITA JABRA  LGT RAIN  43  41  93 NW15      29.94S
WICHITA MCCONL CLOUDY    45  39  81 NW17      29.95S
WINFIELD       CLOUDY    46  41  82 NW15      29.96F
$$

KSZ007>012-019>026-033>040-048>060-102>105-252000-
NORTHEAST KANSAS

CITY           SKY/WX    TMP DP  RH WIND       PRES   REMARKS
CONCORDIA      CLOUDY    40  39  97 N16       29.96F WCI  31
EMPORIA        CLOUDY    45  45 100 N14       29.88F FOG
LAWRENCE       LGT RAIN  52  51  97 N10       29.84F FOG
MANHATTAN      CLOUDY    46  43  89 N9        29.92S FOG
OLATHE IND     CLOUDY    53  52  96 N13       29.82F
OLATHE EXE     CLOUDY    54  54 100 N10       29.82S
SALINA         LGT RAIN  45  41  86 N18       29.97R
TOPEKA BILLARD CLOUDY    49  48  97 N13       29.87S
TOPEKA FORBES  CLOUDY    50  47  89 N14       29.86S
$$



USA.gov is the U.S. government's official web portal to all federal, state and local government web resources and services.